Regional Weather Roundup
Issued by NWS

Home | Current Version | Previous Version | Text Only | Print | Product List | Glossary On
Versions: 1 2 3 4 5 6 7 8 9 10 11 12 13 14 15 16 17 18 19 20 21 22 23 24 25 26 27 28 29 30 31 32 33 34 35 36 37 38 39 40 41 42 43 44 45 46 47 48 49 50
000
ASUS43 KDMX 241907
RWRIA

WEATHER ROUNDUP FOR IOWA
NATIONAL WEATHER SERVICE DES MOINES IA
100 PM CST SAT JAN 24 2015

NOTE: "FAIR" INDICATES FEW OR NO CLOUDS BELOW 12,000 FEET WITH NO
SIGNIFICANT WEATHER AND/OR OBSTRUCTIONS TO VISIBILITY.

* - THESE STATIONS ARE NOT NWS STATIONS...THUS NOT UNDER NWS
QUALITY CONTROL.  THEY ALSO DO NOT REPORT WEATHER SUCH
AS PRECIPITATION OR FOG.

IAZ001>003-012>014-020>022-031>034-043>046-242000-
   NORTHWEST IOWA

CITY           SKY/WX    TMP DP  RH WIND       PRES   REMARKS
CARROLL *      SUNNY     48  34  57 W18       29.70F
CHEROKEE *     PTSUNNY   43  34  70 W10       29.69F
DENISON *      SUNNY     48  32  53 W14G20    29.69F
LE MARS *      SUNNY     45  34  65 W7G13     29.69F
ORANGE CITY *  SUNNY     43  34  70 W13       29.67F
SHELDON *      SUNNY     39  36  87 SW12      29.65F WCI  32
SIOUX CITY     CLOUDY    49  32  52 W12       29.71F
SPENCER        PTSUNNY   41  34  76 W10       29.66F
STORM LAKE *   SUNNY     43  34  70 W12       29.68F
$$

IAZ055>058-069>071-079>083-090>094-242000-
   SOUTHWEST IOWA

CITY           SKY/WX    TMP DP  RH WIND       PRES   REMARKS
ATLANTIC *     SUNNY     52  30  43 W16       29.74F
AUDUBON *      SUNNY     50  32  50 SW16G22   29.73F
CLARINDA *     SUNNY     52  32  46 W12       29.80F
COUNCIL BLFS * SUNNY     48  32  53 SW15      29.75F
CRESTON *      SUNNY     50  32  50 W18       29.75F
HARLAN  *      SUNNY     48  32  53 W15       29.76F
LAMONI         SUNNY     51  31  46 W17       29.76F
RED OAK *      SUNNY     54  30  40 W14       29.77F
SHENANDOAH *   SUNNY     52  32  46 W16       29.79F
$$

IAZ047>049-059>061-072>074-084-242000-
   CENTRAL IOWA

CITY           SKY/WX    TMP DP  RH WIND       PRES   REMARKS
AMES           SUNNY     45  33  63 W15       29.71F
ANKENY *       SUNNY     48  34  57 W15G22    29.72F
CHARITON *     SUNNY     52  32  46 W17       29.74F
DES MOINES     MOSUNNY   49  32  52 W14       29.73F
GRINNELL*      SUNNY     46  34  61 W13       29.71F
KNOXVILLE *    SUNNY     52  32  46 W14       29.71F
MARSHALLTOWN   SUNNY     45  34  65 W12       29.69F
PELLA *        SUNNY     50  34  53 W7        29.73F
PERRY *          N/A     50  34  53 W17       29.71F
$$

IAZ004>006-015-016-023>025-035-036-242000-
   NORTH CENTRAL IOWA

CITY           SKY/WX    TMP DP  RH WIND       PRES   REMARKS
ALGONA *       SUNNY     41  37  87 W14       29.67F
CLARION *      SUNNY     41  39  93 W13       29.67F
ESTHERVILLE    MOSUNNY   38  33  82 SW12      29.64F WCI  30
FORT DODGE *   MOSUNNY   43  34  70 W9        29.70F
MASON CITY     SUNNY     41  34  76 SW10      29.66F
FOREST CITY *  SUNNY     41  32  70 SW9       29.65F
IOWA FALLS *     N/A     43  34  70 W15       29.69F
$$

IAZ007>011-017>019-026>030-037>042-050>054-066-242000-
   NORTHEAST IOWA

CITY           SKY/WX    TMP DP  RH WIND       PRES   REMARKS
CEDAR RAPIDS   SUNNY     45  34  65 W12       29.68F
CHARLES CITY * SUNNY     41  37  87 SW9       29.66F
CLINTON *      SUNNY     43  36  75 W15       29.71F
DECORAH *      SUNNY     41  34  75 VRB5G12   29.64F
DUBUQUE        SUNNY     40  33  76 W8        29.66F WCI  34
MONTICELLO *   SUNNY     45  37  76 W10       29.67F
OELWEIN *      SUNNY     39  36  87 SW10      29.66F WCI  32
WATERLOO       SUNNY     45  35  68 W12       29.66F
$$

IAZ064-065-067-068-078-242000-
   EAST CENTRAL IOWA

CITY           SKY/WX    TMP DP  RH WIND       PRES   REMARKS
DAVENPORT      SUNNY     43  34  70 W16       29.70F
IOWA CITY      SUNNY     46  34  62 W12       29.72F
MT. PLEASANT * SUNNY     45  34  65 SW13      29.74F
MUSCATINE *    SUNNY     46  34  61 W10G17    29.73F
QUAD CITIES    SUNNY     45  33  63 W12       29.70F
$$

IAZ062-063-075>077-085>089-095>099-242000-
   SOUTHEAST IOWA

CITY           SKY/WX    TMP DP  RH WIND       PRES   REMARKS
BURLINGTON     SUNNY     45  35  68 SW14      29.74F
FAIRFIELD *    SUNNY     46  34  61 SW10      29.73F
FORT MADISON * SUNNY     46  37  71 W10       29.76F
KEOKUK *       SUNNY     46  34  61 SW13      29.75F
OSKALOOSA *      N/A     50  34  53 W12       29.72F
CENTERVILLE *  SUNNY     50  32  50 SW13      29.76F
OTTUMWA        SUNNY     51  33  50 W12       29.72F
WASHINGTON *   SUNNY     46  37  71 W12       29.72F
$$

ABBREVIATIONS USED IN REMARKS
   TC - TEMPERATURES IN CELSIUS
  WCI - WIND CHILL INDEX
   HX - HEAT INDEX
  VSB - VISIBILITY
$$



USA.gov is the U.S. government's official web portal to all federal, state and local government web resources and services.